User: anonymous   Login
Location: Hickory_CSC
(35.7330°N, 81.3330°W)
Time: 14:17:51
(UTC-04:00)
Language:

Cosmos 1356 Rocket - Orbit

View from above orbital plane
View from above orbital plane
View from above satellite
View from above satellite

Ground track
Ground track

The orbit data is extracted from the following two-line orbital elements,

1 13154U 82039B   15148.68589782  .00000725  00000-0  59565-4 0  9996
2 13154 081.1837 357.2920 0040442 212.1911 147.6839 14.97404212791383
Epoch (UTC): 28 May 2015 16:27:41
Eccentricity: 0.0040442
inclination: 81.1837°
perigee height: 547 km
apogee height: 603 km
right ascension of ascending node: 357.2920°
argument of perigee: 212.1911°
revolutions per day: 14.97404212
mean anomaly at epoch: 147.6839°
orbit number at epoch: 79138

The dashed part of the orbit path shows where the satellite is in the earth's shadow,  

DLR